Weather in Nezhitino

Russia / Kostroma Oblast     57°28′45″N   43°17′52″E
temp.,
°C
wind,
m/s
gust,
m/s
humid.,
%
clouds,
%
prec.,
mm/h
press.,
hPa
HPBL,
m
4 july, mon
mon400:00+13se228912 0.0 101614
03:00+12ene119412 0.0 101611
06:00+16ene257847 0.0 1017236
09:00+21ne24485 0.0 10171150
12:00+24ne243714 0.0 10161864
15:00+26nne243431 0.0 10152356
18:00+25ne244494 0.0 1015625
21:00+17ese366947 0.0 1015104
5 july, tue
tue500:00+14ese236735 0.0 101742
03:00+12sse22765 0.0 101820
06:00+16sse236459 0.0 1018138
09:00+21ssw23505 0.0 1018596
12:00+24sw33443 0.0 1017965
15:00+25ssw22392 0.0 1016872
18:00+24ssw234617 0.0 1016279
21:00+18ssw366334 0.0 101589
6 july, wed
wed600:00+16ssw397654 0.0 1016196
03:00+15s39785 0.0 1015193
06:00+17ssw3776100 0.0 1015243
09:00+22ssw46679 0.0 1014613
12:00+26ssw4552100 0.1 10141136
15:00+27ssw4552100 0.4 1013624
18:00+23ssw2570100 0.5 1013134
21:00+20sw378564 1.2 1013156
7 july, thu
thu700:00+17ssw249429 0.0 101368
03:00+17s379773 0.1 1013163
06:00+19ssw3890100 0.1 1012238
09:00+24ssw5870100 0.1 1012512
12:00+26ssw596685 0.9 1012972
15:00+27wsw595867 2.3 10121335
18:00+26wnw46605 0.3 10131093
21:00+20wnw1176100 0.3 101512
8 july, fri
fri800:00+16n238976 0.0 101650
03:00+15nne22925 0.0 101721
06:00+18nne127853 0.0 1017171
09:00+24ene105461 0.0 1017793
12:00+26sw224466 0.0 10161459
15:00+26sw224664 0.0 1016968
18:00+20s2385100 1.1 101542
21:00+19sw229042 1.5 101527